Simultaneous Nadir Overpasses (SNOs) Predictions

Prediction of SNOs between GOES-16 and NOAA-20 Satellite Orbit:

Table of predicted SNOs for the next 14.0 days since TLE Epoch: 9/26/2020
Index Date Time (GOES-16) GOES-16 Lat,Lon NOAA-20 Lat,Lon Distance(km) Time Diff (sec)
1 09/27/2020 18:25:54 0.01, -75.20 -0.07, -75.65 51.63 80
2 09/28/2020 18:09:49 0.01, -75.20 0.94, -71.12 465.59 80
3 09/30/2020 06:31:35 -0.01, -75.20 0.25, -76.38 134.34 80
4 10/01/2020 06:10:10 -0.01, -75.21 -0.76, -71.85 383.27 80
5 10/02/2020 18:32:05 0.01, -75.23 -0.42, -77.15 218.48 80
6 10/03/2020 18:16:00 0.01, -75.24 0.59, -72.61 299.59 80
7 10/05/2020 06:37:46 -0.01, -75.26 0.59, -77.88 299.12 80
8 10/06/2020 06:16:20 -0.01, -75.27 -0.42, -73.34 219.02 80
9 10/07/2020 18:38:16 0.01, -75.29 -0.75, -78.65 382.31 80
10 10/08/2020 18:22:10 0.01, -75.31 0.26, -74.11 136.03 80
